www.pogodaiklimat.ru

Погода и климат >> Архив погоды >> Россия >> город Севастополь >> Херсонесский Маяк


ПОГОДА в Херсонесском Маяке

  • Прогноз погоды в Херсонесском Маяке
  • Монитор погоды в Херсонесском Маяке

АРХИВ ПОГОДЫ в Херсонесском Маяке

Время (UTC), дата Ветер
(напр.,м/с)
 
Видим.   Явления Облачность Т
(С)
Тd
(С)
f
(%)
Тe
(С)
Тes
(С)
Комфортность P
(гПа)
Po
(гПа)
Тmin
(С)
Tmax
(С)
R
(мм)
R24
(мм)
S
(см)
15 14.08 СЗ 3 20 км ясно +30.2 +16.2 43 +33 +35 душно 1008.3 1007.6
18 14.08 В 2 20 км ясно +24.8 +17.8 65 +29 +29 душно 1008.8 1008.1 +32.0
21 14.08 В 1 20 км ясно +23.0 +16.1 65 +27 +27 душно 1007.3 1006.6
00 15.08 В 2 20 км 3/0
[Ci fib]
+19.0 +13.8 72 +21 +21 комфорт 1008.2 1007.5
03 15.08 В 3 20 км 8/0
[Ac trans]
+19.8 +15.0 74 +22 +22 комфорт 1006.9 1006.2 +18.7
06 15.08 С 1 20 км 10/0
[Ac As]
+25.1 +16.7 60 +29 +31 душно 1008.2 1007.5 +18.7
09 15.08 В 6 20 км 10/6 600 м
[Sc Ac As]
+26.7 +18.3 60 +31 +32 душно 1006.0 1005.3
12 15.08 СЗ 5
{11}
20 км 9/0
[Ac As Ci fib]
+26.4 +23.7 85 +36 +39 очень
душно
1008.9 1008.2
15 15.08 В 6 20 км 9/9 600 м
[Sc]
+27.1 +18.2 58 +32 +32 очень
душно
1007.0 1006.3
18 15.08 СВ 5 20 км 8/0
[Ac trans Ci fib]
+26.0 +19.7 68 +32 +32 очень
душно
1008.1 1007.4 +29.1
21 15.08 СВ 3 20 км 8/0
[Ac trans]
+24.8 +18.7 69 +30 +30 душно 1008.9 1008.2
00 16.08 В 2 20 км 6/0
[Ac trans Ci fib]
+23.0 +19.6 81 +30 +30 очень
душно
1008.7 1008.0
03 16.08 В 3 20 км 10/0
[Ac As]
+22.7 +19.6 83 +29 +29 очень
душно
1008.5 1007.8 +22.7
06 16.08 С 4 20 км 10/10 600 м
[Cu Sc]
+23.4 +19.9 81 +30 +30 очень
душно
1009.7 1009.0 +21.7
09 16.08 С 4 10 км слаб. ливневой дождь 10/10 600 м
[Cb cap]
+23.4 +20.7 85 +31 +31 очень
душно
1009.3 1008.6
12 16.08 СВ 4 20 км {ливн. осадки} 10/10 600 м
[Cu Sc]
+23.4 +19.5 79 +30 +30 очень
душно
1009.4 1008.7
15 16.08 СЗ 5 20 км 9/9 600 м
[Cu Sc]
+23.6 +20.9 85 +30 +30 очень
душно
1010.2 1009.5 0.1
18 16.08 С 6 20 км 10/10 600 м
[Sc]
+23.3 +20.2 83 +31 +31 очень
душно
1011.1 1010.4 +23.7 0.1
21 16.08 СВ 1 20 км 10/10 600 м
[Sc]
+22.5 +19.8 85 +29 +29 очень
душно
1011.5 1010.8
00 17.08 СВ 3 20 км 8/3 600 м
[Sc Ac trans]
+21.8 +17.8 78 +26 +26 душно 1011.5 1010.8
03 17.08 СВ 3 20 км ясно +20.0 +17.6 86 +23 +23 комфорт 1011.9 1011.2 +20.0
06 17.08 С 6 20 км ясно +21.9 +16.7 72 +26 +28 душно 1012.9 1012.2 +19.7
09 17.08 С 6 20 км 3/0
[Ci fib]
+22.5 +17.7 74 +28 +33 душно 1013.2 1012.5
12 17.08 С 7 20 км 8/0
[Ci fib]
+22.8 +14.8 61 +27 +29 душно 1013.0 1012.3
15 17.08 СЗ 7
{10}
20 км 8/0
[Ci fib]
+22.3 +15.1 64 +26 +26 жарко 1012.7 1012.0
18 17.08 С 6 20 км 4/0
[Ci fib]
+22.0 +15.3 66 +26 +26 душно 1013.2 1012.5 +23.0
21 17.08 В 3 20 км 8/0
[Ac trans Ci fib]
+18.5 +14.2 76 +19 +19 1012.8 1012.1
00 18.08 В 3 20 км 6/0
[Ac trans Ci fib]
+17.8 +12.8 73 +18 +18 1012.2 1011.5
03 18.08 СВ 2 20 км 9/0
[Ac As Ci fib]
+17.4 +12.2 72 +18 +18 1011.9 1011.2 +17.4
06 18.08 СВ 5 20 км 9/1 600 м
[Cu med, cong Ac As]
+19.0 +13.8 72 +20 +21 1012.7 1012.0 +17.4
09 18.08 С 4 20 км 9/1 600 м
[Cu med, cong Ac As]
+21.9 +16.1 70 +26 +29 душно 1013.7 1013.0
12 18.08 С 4 20 км 9/3 600 м
[Cu med, cong Ac As]
+21.1 +16.2 74 +24 +27 комфорт 1014.2 1013.5
15 18.08 С 4 20 км 10/1 600 м
[Cu med, cong Ac As]
+21.0 +15.8 72 +25 +25 комфорт 1014.8 1014.1
18 18.08 В 3 20 км 8/8 600 м
[Cu Sc]
+20.6 +15.7 73 +24 +24 комфорт 1015.7 1015.0 +22.4
21 18.08 В 2 20 км 5/5 600 м
[Sc]
+19.1 +14.3 74 +21 +21 комфорт 1016.2 1015.5
00 19.08 В 2 20 км 3/0
[Ci fib]
+17.9 +16.3 90 +18 +18 1016.6 1015.9
03 19.08 ЮВ 2 20 км 3/3
[Cb calv Ci fib]
+17.0 +14.9 87 +17 +17 1017.2 1016.5 +16.8
06 19.08 СВ 1 20 км 4/0
[Ac trans]
+20.5 +16.3 77 +25 +30 комфорт 1017.6 1016.9 +16.8
09 19.08 С 4 20 км 5/5 600 м
[Cu med, cong]
+21.9 +17.4 76 +26 +31 душно 1017.7 1017.0
12 19.08 СЗ 6 20 км 6/6 600 м
[Cu med, cong]
+24.8 +19.2 71 +30 +32 душно 1017.4 1016.7
15 19.08 СЗ 6 20 км 3/3 600 м
[Cu hum]
+25.2 +19.0 69 +30 +31 душно 1017.2 1016.5
18 19.08 В 2 20 км ясно +24.1 +20.7 81 +30 +30 очень
душно
1018.0 1017.3 +25.2
21 19.08 В 2 20 км ясно +20.0 +17.1 83 +23 +23 комфорт 1018.5 1017.8
00 20.08 В 2 20 км ясно +19.0 +16.5 85 +21 +21 комфорт 1018.1 1017.4
03 20.08 В 2 20 км 3/0
[Ac trans Ci fib]
+17.3 +14.7 85 +18 +18 1018.4 1017.7 +17.2
06 20.08 штиль 0 20 км ясно +22.1 +18.1 78 +27 +35 душно 1018.4 1017.7 +17.2
09 20.08 С 6 20 км 8/3 600 м
[Cu hum Cc]
+26.4 +21.8 76 +34 +38 очень
душно
1017.8 1017.1
12 20.08 СВ 7-10
{11}
20 км 8/4 600 м
[Cu Sc Ac lent Ci fib]
+29.0 +20.4 60 +36 +37 очень
душно
1016.9 1016.2
15 20.08 СВ 7-10
{11}
20 км 8/3 600 м
[Sc Ac trans Ci fib]
+29.5 +19.8 56 +36 +36 очень
душно
1016.6 1015.9
18 20.08 В 6
{11}
20 км 8/8 600 м
[Sc]
+28.2 +18.3 55 +33 +33 очень
душно
1017.5 1016.8 +29.7
21 20.08 В 2 20 км 10/4 600 м
[Sc Ac As]
+27.0 +19.1 62 +32 +32 очень
душно
1017.3 1016.6
00 21.08 штиль 0 50 км ?/? +25.8 +19.1 67 +31 +31 очень
душно
1016.4 1015.7
03 21.08 В 2 20 км 6/0
[Ac lent Ci fib]
+24.7 +19.1 71 +30 +30 очень
душно
1015.2 1014.5 +24.6
06 21.08 СВ 5 20 км 8/0
[Ac trans Cs]
+27.5 +18.9 59 +33 +35 очень
душно
1015.2 1014.5 +24.2
09 21.08 СВ 7
{11}
10 км гроза, ливневой дождь 10/10 600 м
[Cb cap]
+29.1 +21.1 62 +37 +37 очень
душно
1014.1 1013.4
12 21.08 СВ 10-10
{14}
20 км {гроза} 6/3 600 м
[Cu med, cong Ci fib]
+32.5 +20.4 49 +39 +40 очень
душно
1012.4 1011.7

 

Местоположение метеостанции Херсонесский Маяк (город Севастополь, Россия): широта 44.58 долгота 33.38 высота над уровнем моря 4 м.

В архиве по умолчанию представлена погода в Херсонесском Маяке за последнюю неделю. Архивные данные за месяц целиком и за предыдущие месяцы, начиная с января 2011 года, Вы можете получить, выбрав интересующий диапазон дат из раскрывающегося списка и нажав кнопку "Ввод!".


*Определитесь, кто Вы:
робот инопланетянин человек

Внимание! Время в таблицах - всемирное. Для получения местного времени необходимо прибавить поправку, которая равна 3 ч.

Смотрите также архив погоды в соседних городах и на ближайших метеорологических станциях:

Погода в Севастополе (город Севастополь, Россия) (13 км)
Погода в Почтовом (Крым, Россия) (53 км)
Погода на Ай-Петри (Крым, Россия) (57 км)
Погода в Ялте (Крым, Россия) (64 км)
Погода в Евпатории (Крым, Россия) (67 км)
Погода в Симферополе (Крым, Россия) (68 км)
Погода в Никитском саду (Крым, Россия) (69 км)
Погода в Симферополе город (Крым, Россия) (71 км)
Погода на Ангарском Перевале (Крым, Россия) (79 км)
Погода в Алуште (Крым, Россия) (81 км)

Пояснения к столбцам:

Ветер - указаны скорость ветра в м/с - средняя за 10 мин, порывы в срок и между сроками (в фигурных скобках) и направление, откуда дует ветер: С - северный, СВ - северо-восточный, В - восточный, ЮВ - юго-восточный, Ю - южный, ЮЗ - юго-западный, З - западный, СЗ - северо-западный.
Видимость - горизонтальная дальность видимости в метрах или километрах. При видимости от 1 до 10 км при отсутствии осадков обычно наблюдается дымка, при ухудшении видимости до 1 км и менее - туман. В сухую погоду видимость может ухудшаться дымом, пылью или мглою.
Явления - указаны атмосферные явления, наблюдавшиеся в срок или в последний час перед сроком; фигурными скобками обозначены явления, наблюдавшиеся между сроками (за 1-3 часа до срока); квадратными скобками обозначены град или гололедные отложения с указанием их диаметра в мм.
Облачность - указаны через наклонную черту общая и нижняя облачность в баллах и высота нижней границы облаков в метрах; квадратными скобками обозначены формы облаков: Ci - перистые, Cs - перисто-слоистые, Cc - перисто-кучевые, Ac - высококучевые, As - высокослоистые, Sc - слоисто-кучевые, Ns - слоисто-дождевые, Cu - кучевые, Cb - кучево-дождевые. Подробнее классификацию облаков см. в Атласе облаков (PDF).
T - Температура воздуха - температура, измеренная на высоте 2 м над землей.
Td - Температура точки росы - температура, при понижении до которой содержащийся в воздухе водяной пар достигнет насыщения.
f - Относительная влажность воздуха - влажноcть воздуха, измеренная на высоте 2 м над землей.
Te - Эффективная температура - температура, которую ощущает одетый по сезону человек в тени. Характеристика душности погоды. При расчете учитывается влияние влажности воздуха и скорости ветра на теплоощущения человека.
Tes - Эффективная температура на солнце - температура, которую ощущает человек, с поправкой на солнечный нагрев. Характеристика знойности погоды. Зависит от высоты солнца над горизонтом, облачности и скорости ветра. Ночью, в пасмурную погоду, а также при ветре 12 м/с и более поправка равна нулю.
P - Атмосферное давление - приведенное к уровню моря атмосферное давление.
Po - Атмосферное давление - измеренное на уровне метеостанции атмосферное давление.
Tmin - Минимальная температура - минимум температуры воздуха на высоте 2 м над землей.
Tmax - Максимальная температура - максимум температуры воздуха на высоте 2 м над землей.
R - Количество осадков - Количество выпавших осадков за период времени, мм. При наведении курсора мыши на число - период времени, за который выпало указанное количество осадков.
R24 - Количество осадков - Количество выпавших осадков за 24 часа, мм.
S - Снежный покров - Высота снежного покрова, см. При наведении курсора мыши на число - состояние снежного покрова и степень покрытия местности в баллах.